Skip Page Navigation
NASA JPL Caltech
NASA Logo - Jet Propulsion Laboratory + View the NASA Portal
+ Center for Near-Earth Object Studies
JPL Home Earth Solar System Stars & Galaxies Technology
JPL Solar System Dynamics
BODIES ORBITS EPHEMERIDES TOOLS PHYSICAL DATA DISCOVERY FAQ SITE MAP
IMPORTANT: The SSD Announcement email list is now available. Major changes are coming in the near future, including possible hostname and/or URL changes. To be notified of such changes, subscribe to this email list.

Please visit this page for more details.


JPL Small-Body Database Browser
Search: [ help ]  
469118 (2015 DP150)
Classification: Main-belt Asteroid          SPK-ID: 2469118
Ephemeris | Orbit Diagram | Orbital Elements | Mission Design | Physical Parameters | Discovery Circumstances ]

[ show orbit diagram ]
Orbital Elements at Epoch 2458600.5 (2019-Apr-27.0) TDB
Reference: JPL 12 (heliocentric ecliptic J2000)
 Element Value Uncertainty (1-sigma)   Units 
e .1673404038699325 5.6292e-08  
a 2.550607934332297 5.489e-08 au
q 2.123788172487276 1.4781e-07 au
i 15.73989482626007 7.8352e-06 deg
node 230.6154156134342 2.0359e-05 deg
peri 73.64159415762632 3.0971e-05 deg
M 216.779651294204 2.4135e-05 deg
tp 2459192.424358838219
(2020-Dec-08.92435884)
0.0001063 TDB
period 1487.86657138711
4.07
4.8029e-05
1.315e-07
d
yr
n .2419571801148666 7.8105e-09 deg/d
Q 2.977427696177317 6.4076e-08 au
  Orbit Determination Parameters
   # obs. used (total)      124  
   data-arc span      3365 days (9.21 yr)  
   first obs. used      2009-11-10  
   last obs. used      2019-01-27  
   planetary ephem.      DE431  
   SB-pert. ephem.      SB431-N16  
   condition code      0  
   norm. resid. RMS      .52709  
   source      ORB  
   producer      Otto Matic  
   solution date      2019-Jul-14 16:23:19  

Additional Information
 Earth MOID = 1.16842 au 
 Jupiter MOID = 2.32143 au 
 T_jup = 3.369 
[ show covariance matrix ]

Ephemeris | Orbit Diagram | Orbital Elements | Mission Design | Physical Parameters | Discovery Circumstances ]

Physical Parameter Table
Parameter Symbol Value Units Sigma Reference Notes
absolute magnitude H 16.7   n/a MPO434685  

469118 (2015 DP150)          Discovered 2009-Nov-10 by Spacewatch at Kitt Peak
Reference: Last Updated: 2016-06-21
Ephemeris | Orbit Diagram | Orbital Elements | Mission Design | Physical Parameters | Discovery Circumstances ]
ABOUT SSD CREDITS/AWARDS PRIVACY/COPYRIGHT GLOSSARY LINKS
FirstGov
(server date/time)  
NASA Home Page
Site Manager:   Ryan S. Park
Webmaster  Alan B. Chamberlin